Terminal Aerodrome Forecast
Issued by NWS

Home | Current Version | Previous Version | Text Only | Print | Product List | Glossary On
Versions: 1 2 3 4 5 6 7 8 9 10 11 12 13
000
FTAK31 PAJN 311100
TAFASI
TAF
PASI 311120Z 3112/0112 11012KT P6SM -SHRA FEW010 SCT030 OVC045
     FM311800 12012KT P6SM -SHRA SCT015 OVC030
     FM010700 12015G25KT P6SM -RA OVC025 WS020/13045KT=

USA.gov is the U.S. government's official web portal to all federal, state and local government web resources and services.